Location: Bergnerzell
(49.1816°N, 10.2565°E)
Time: 01:41:38
(UTC+00:00)

Cosmos 676 Rocket - Pass Details

Date: 23 May 2024
Orbit: 752 x 782 km, 74.0° (Epoch: 13 June)

Event Time Altitude Azimuth Distance (km) Brightness Sun altitude
Exits shadow 00:42:50 31° 205° (SSW) 1,344 4.7 -17.5°
Maximum altitude 00:45:27 87° 291° (WNW) 790 4.0 -17.4°
Drops below altitude 10° 00:50:49 10° 23° (NNE) 2,349 7.9 -17.0°
Sets 00:53:13 0° 24° (NNE) 3,281 9.1 -16.9°
